Connexion S'enregistrer

Connexion à votre compte

Identifiant
Mot de passe
Maintenir la connexion active sur ce site

Créer un compte

Pour valider ce formulaire, vous devez remplir tous les champs.
Nom
Identifiant
Mot de passe
Répétez le mot de passe
Adresse e-mail
Répétez l'adresse e-mail

URGENT! L'Aéroclub recherche de nouveaux instructeurs.

Prise de fonction immédiate.

 

L’Aéroclub de Savoie recherche FIAs qualifiés, bénévoles (préférés) ou auto-entrepreneurs, sans expérience prérequise, pour BB et PPL.

Qualif montagne et vol nuit bienvenues.

Souhait d’une implication pédagogique au-delà de l’acquisition d’expérience.

Bénévoles, défraiement maximum : 60km. 

Contacter le secrétariat ou envoyer candidature par mail.

Nous contacter

 Téléphone : +33 (0)4 79 54 41 81

Coordonnées détaillées et accès : cliquez ici

 
LFLB °C
    Ferienhaus Ostsee
[source: ADDS]
METAR
LFLB 190930Z AUTO 01004KT 330V040 CAVOK 23/17 Q1022 TEMPO FEW050TCU =
TAF
TAF LFLB 190500Z 1906/2006 VRB02KT CAVOK TEMPO 1909/1917 36012KT FEW050TCU =
SR / SS: 04:42 / 18:37 UTC (Lever/Coucher du soleil le 2018-08-19)
JSN Boot template designed by JoomlaShine.com